Location: Cella
(44.7333°N, 10.5667°E)
Time: 10:12:13
(UTC+00:00)

Cosmos 1777 Rocket - Pass Details

Date: 21 June 2021
Orbit: 757 x 776 km, 74.0° (Epoch: 28 July)

Event Time Altitude Azimuth Distance (km) Brightness Sun altitude
Rises 20:55:14 0° 350° (N) 3,261 8.6 -14.3°
Reaches altitude 10° 20:58:22 10° 8° (N) 2,332 7.2 -14.6°
Maximum altitude 21:02:02 19° 52° (NE) 1,807 6.0 -14.9°
Drops below altitude 10° 21:05:40 10° 96° (E) 2,326 6.1 -15.3°
Enters shadow 21:05:52 - 98° (E) 2,374 6.2 -15.3°
